Time,TemperatureF,DewpointF,PressureIn,WindDirection,WindDirectionDegrees,WindSpeedMPH,WindSpeedGustMPH,Humidity,HourlyPrecipIn,Conditions,Clouds,dailyrainin,SoftwareType,DateUTC
2013-08-28 00:01:00,68.2,67.3,31.01,SSW,211,0.0,0.0,97,0.00,,---,0.00,VWS V14.01,2013-08-28 04:01:00,
2013-08-28 00:06:00,68.2,67.3,31.01,SSW,211,0.0,0.0,97,0.00,,---,0.00,VWS V14.01,2013-08-28 04:06:00,
2013-08-28 00:11:00,68.0,67.1,31.01,SSW,211,0.0,0.0,97,0.00,,---,0.00,VWS V14.01,2013-08-28 04:11:00,
2013-08-28 00:15:00,68.0,67.1,31.01,SSW,211,2.2,2.2,97,0.00,,---,0.00,VWS V14.01,2013-08-28 04:15:00,
2013-08-28 00:20:00,68.0,66.8,31.01,SSW,211,0.0,0.0,96,0.00,,---,0.00,VWS V14.01,2013-08-28 04:20:00,
2013-08-28 00:25:00,68.0,66.8,31.01,SSW,211,0.0,0.0,96,0.00,,---,0.00,VWS V14.01,2013-08-28 04:25:00,
2013-08-28 00:30:00,67.8,66.9,31.01,SSW,211,0.0,0.0,97,0.00,,---,0.00,VWS V14.01,2013-08-28 04:30:00,
2013-08-28 00:35:00,67.8,67.2,31.01,SSW,211,0.0,0.0,98,0.00,,---,0.00,VWS V14.01,2013-08-28 04:35:00,
2013-08-28 00:40:00,67.6,67.1,31.01,SSW,211,0.0,0.0,98,0.00,,---,0.00,VWS V14.01,2013-08-28 04:40:00,
2013-08-28 00:45:00,67.6,67.1,31.01,SSW,211,0.0,0.0,98,0.00,,---,0.00,VWS V14.01,2013-08-28 04:45:00,
2013-08-28 00:50:00,67.6,67.1,31.01,SSW,211,0.0,0.0,98,0.00,,---,0.00,VWS V14.01,2013-08-28 04:50:00,
2013-08-28 00:55:00,67.6,67.1,31.01,SSW,211,0.0,0.0,98,0.00,,---,0.00,VWS V14.01,2013-08-28 04:55:00,
2013-08-28 01:00:00,67.8,67.2,31.01,SSW,211,0.0,0.0,98,0.00,,---,0.00,VWS V14.01,2013-08-28 05:00:00,
2013-08-28 01:05:00,67.8,67.2,31.01,SSW,211,0.0,0.0,98,0.00,,---,0.00,VWS V14.01,2013-08-28 05:05:00,
2013-08-28 01:10:00,67.6,67.1,31.01,SSW,211,0.0,0.0,98,0.00,,---,0.00,VWS V14.01,2013-08-28 05:10:00,
2013-08-28 01:15:00,67.6,67.1,31.01,SSW,211,0.0,0.0,98,0.00,,---,0.00,VWS V14.01,2013-08-28 05:15:00,
2013-08-28 01:20:00,67.6,67.1,31.01,SSW,211,0.0,0.0,98,0.00,,---,0.00,VWS V14.01,2013-08-28 05:20:00,
2013-08-28 01:24:00,67.6,67.1,31.01,SSW,211,0.0,0.0,98,0.00,,---,0.00,VWS V14.01,2013-08-28 05:24:00,
2013-08-28 01:29:00,67.5,66.9,31.01,SSW,211,0.0,0.0,98,0.00,,---,0.00,VWS V14.01,2013-08-28 05:29:00,
2013-08-28 01:34:00,67.5,66.9,31.01,SSW,211,0.0,0.0,98,0.00,,---,0.00,VWS V14.01,2013-08-28 05:34:00,
2013-08-28 01:39:00,67.5,66.9,31.01,SSW,211,0.0,0.0,98,0.00,,---,0.00,VWS V14.01,2013-08-28 05:39:00,
2013-08-28 01:44:00,67.5,66.9,31.01,SSW,211,0.0,0.0,98,0.00,,---,0.00,VWS V14.01,2013-08-28 05:44:00,
2013-08-28 01:49:00,67.5,66.9,31.01,SSW,211,0.0,0.0,98,0.00,,---,0.00,VWS V14.01,2013-08-28 05:49:00,
2013-08-28 01:54:00,67.5,66.9,31.01,SSW,211,0.0,0.0,98,0.00,,---,0.00,VWS V14.01,2013-08-28 05:54:00,
2013-08-28 01:59:00,67.5,66.9,31.01,SSW,211,0.0,2.2,98,0.00,,---,0.00,VWS V14.01,2013-08-28 05:59:00,
2013-08-28 02:04:00,67.5,66.9,31.01,SSW,211,0.0,0.0,98,0.00,,---,0.00,VWS V14.01,2013-08-28 06:04:00,
2013-08-28 02:09:00,67.3,66.7,31.01,SSW,211,0.0,0.0,98,0.00,,---,0.00,VWS V14.01,2013-08-28 06:09:00,
2013-08-28 02:14:00,67.3,66.7,31.01,SSW,211,0.0,0.0,98,0.00,,---,0.00,VWS V14.01,2013-08-28 06:14:00,
2013-08-28 02:19:00,67.1,66.5,31.01,SSW,211,0.0,0.0,98,0.00,,---,0.00,VWS V14.01,2013-08-28 06:19:00,
2013-08-28 02:24:00,67.1,66.5,31.01,SSW,211,0.0,0.0,98,0.00,,---,0.00,VWS V14.01,2013-08-28 06:24:00,
2013-08-28 02:29:00,67.3,66.7,31.01,SSW,211,0.0,0.0,98,0.00,,---,0.00,VWS V14.01,2013-08-28 06:29:00,
2013-08-28 02:34:00,67.3,66.7,31.01,SSW,211,0.0,0.0,98,0.00,,---,0.00,VWS V14.01,2013-08-28 06:34:00,
2013-08-28 02:39:00,67.3,66.7,31.01,SSW,211,0.0,0.0,98,0.00,,---,0.00,VWS V14.01,2013-08-28 06:39:00,
2013-08-28 02:44:00,67.1,66.5,31.01,WNW,284,0.0,0.0,98,0.00,,---,0.00,VWS V14.01,2013-08-28 06:44:00,
2013-08-28 02:49:00,67.3,66.7,31.01,West,272,0.0,0.0,98,0.00,,---,0.00,VWS V14.01,2013-08-28 06:49:00,
2013-08-28 02:54:00,67.3,66.7,31.01,West,272,0.0,0.0,98,0.00,,---,0.00,VWS V14.01,2013-08-28 06:54:00,
2013-08-28 02:59:00,67.3,66.7,31.01,West,272,0.0,0.0,98,0.00,,---,0.00,VWS V14.01,2013-08-28 06:59:00,
2013-08-28 03:04:00,67.3,66.7,31.01,West,272,0.0,0.0,98,0.00,,---,0.00,VWS V14.01,2013-08-28 07:04:00,
2013-08-28 03:09:00,67.3,66.7,31.01,West,272,0.0,0.0,98,0.00,,---,0.00,VWS V14.01,2013-08-28 07:09:00,
2013-08-28 03:14:00,67.3,66.7,31.01,West,272,0.0,0.0,98,0.00,,---,0.00,VWS V14.01,2013-08-28 07:14:00,
2013-08-28 03:19:00,67.3,66.7,31.01,West,272,0.0,0.0,98,0.00,,---,0.00,VWS V14.01,2013-08-28 07:19:00,
2013-08-28 03:24:00,67.3,66.7,31.01,West,272,0.0,0.0,98,0.00,,---,0.00,VWS V14.01,2013-08-28 07:24:00,
2013-08-28 03:29:00,67.3,66.7,31.01,West,272,0.0,0.0,98,0.00,,---,0.00,VWS V14.01,2013-08-28 07:29:00,
2013-08-28 03:34:00,67.5,66.9,31.01,West,272,0.0,0.0,98,0.00,,---,0.00,VWS V14.01,2013-08-28 07:34:00,
2013-08-28 03:39:00,67.5,66.9,31.01,West,272,0.0,0.0,98,0.00,,---,0.00,VWS V14.01,2013-08-28 07:39:00,
2013-08-28 03:44:00,67.6,67.1,31.01,West,272,0.0,2.2,98,0.00,,---,0.00,VWS V14.01,2013-08-28 07:44:00,
2013-08-28 03:49:00,67.8,67.2,31.01,West,272,0.0,0.0,98,0.00,,---,0.00,VWS V14.01,2013-08-28 07:49:00,
2013-08-28 03:54:00,68.0,67.1,31.01,West,272,0.0,2.2,97,0.00,,---,0.00,VWS V14.01,2013-08-28 07:54:00,
2013-08-28 03:59:00,68.0,66.8,31.01,West,272,0.0,0.0,96,0.00,,---,0.00,VWS V14.01,2013-08-28 07:59:00,
2013-08-28 04:04:00,67.8,66.9,31.01,West,272,0.0,0.0,97,0.00,,---,0.00,VWS V14.01,2013-08-28 08:04:00,
2013-08-28 04:09:00,67.8,66.9,31.01,West,272,0.0,0.0,97,0.00,,---,0.00,VWS V14.01,2013-08-28 08:09:00,
2013-08-28 04:14:00,67.8,66.9,31.01,West,272,2.7,2.7,97,0.00,,---,0.00,VWS V14.01,2013-08-28 08:14:00,
2013-08-28 04:19:00,67.8,66.9,31.01,West,272,0.0,0.0,97,0.00,,---,0.00,VWS V14.01,2013-08-28 08:19:00,
2013-08-28 04:24:00,67.8,66.9,31.01,West,272,0.0,0.0,97,0.00,,---,0.00,VWS V14.01,2013-08-28 08:24:00,
2013-08-28 04:29:00,67.8,66.9,31.01,West,272,0.0,0.0,97,0.00,,---,0.00,VWS V14.01,2013-08-28 08:29:00,
2013-08-28 04:34:00,67.8,66.9,31.01,West,272,2.2,2.2,97,0.00,,---,0.00,VWS V14.01,2013-08-28 08:34:00,
2013-08-28 04:39:00,67.8,66.9,31.01,WSW,240,2.7,4.0,97,0.00,,---,0.00,VWS V14.01,2013-08-28 08:39:00,
2013-08-28 04:44:00,67.8,66.9,31.01,SSW,201,3.1,4.0,97,0.00,,---,0.00,VWS V14.01,2013-08-28 08:44:00,
2013-08-28 04:49:00,67.8,66.9,31.01,WSW,245,2.2,3.6,97,0.00,,---,0.00,VWS V14.01,2013-08-28 08:49:00,
2013-08-28 04:54:00,68.0,66.8,31.01,South,173,0.0,2.7,96,0.00,,---,0.00,VWS V14.01,2013-08-28 08:54:00,
2013-08-28 04:59:00,68.0,66.8,31.01,SW,233,0.0,0.0,96,0.00,,---,0.00,VWS V14.01,2013-08-28 08:59:00,
2013-08-28 05:04:00,68.0,66.5,31.01,SW,233,0.0,0.0,95,0.00,,---,0.00,VWS V14.01,2013-08-28 09:04:00,
2013-08-28 05:09:00,68.0,66.5,31.01,SW,233,3.1,3.1,95,0.00,,---,0.00,VWS V14.01,2013-08-28 09:09:00,
2013-08-28 05:14:00,68.2,66.7,31.01,SW,233,2.2,2.7,95,0.00,,---,0.00,VWS V14.01,2013-08-28 09:14:00,
2013-08-28 05:19:00,68.0,66.5,31.01,SW,233,0.0,0.0,95,0.00,,---,0.00,VWS V14.01,2013-08-28 09:19:00,
2013-08-28 05:24:00,68.0,66.8,31.01,SW,233,0.0,2.2,96,0.00,,---,0.00,VWS V14.01,2013-08-28 09:24:00,
2013-08-28 05:29:00,68.2,66.7,31.01,SW,233,2.7,2.7,95,0.00,,---,0.00,VWS V14.01,2013-08-28 09:29:00,
2013-08-28 05:34:00,68.4,66.9,31.01,SW,233,0.0,0.0,95,0.00,,---,0.00,VWS V14.01,2013-08-28 09:34:00,
2013-08-28 05:38:00,68.2,66.7,31.01,SW,233,0.0,0.0,95,0.00,,---,0.00,VWS V14.01,2013-08-28 09:38:00,
2013-08-28 05:43:00,68.4,66.9,31.01,ENE,76,0.0,0.0,95,0.00,,---,0.00,VWS V14.01,2013-08-28 09:43:00,
2013-08-28 05:48:00,68.4,67.2,31.01,SSW,193,2.7,2.7,96,0.00,,---,0.00,VWS V14.01,2013-08-28 09:48:00,
2013-08-28 05:53:00,68.4,67.2,31.01,South,190,0.0,2.7,96,0.00,,---,0.00,VWS V14.01,2013-08-28 09:53:00,
2013-08-28 05:59:00,68.4,67.2,31.01,South,190,2.2,2.7,96,0.00,,---,0.00,VWS V14.01,2013-08-28 09:59:00,
2013-08-28 06:04:00,68.4,67.2,31.01,South,190,2.7,2.7,96,0.00,,---,0.00,VWS V14.01,2013-08-28 10:04:00,
2013-08-28 06:08:00,68.5,67.1,31.01,South,190,0.0,0.0,95,0.00,,---,0.00,VWS V14.01,2013-08-28 10:08:00,
2013-08-28 06:13:00,68.5,67.1,31.01,South,190,3.1,3.1,95,0.00,,---,0.00,VWS V14.01,2013-08-28 10:13:00,
2013-08-28 06:18:00,68.5,67.1,31.01,South,190,3.1,3.1,95,0.00,,---,0.00,VWS V14.01,2013-08-28 10:18:00,
2013-08-28 06:23:00,68.5,67.1,31.01,WSW,240,2.2,2.2,95,0.00,,---,0.00,VWS V14.01,2013-08-28 10:23:00,
2013-08-28 06:28:00,68.5,67.1,31.01,WSW,240,0.0,0.0,95,0.00,,---,0.00,VWS V14.01,2013-08-28 10:28:00,
2013-08-28 06:33:00,68.5,67.1,31.01,WSW,240,2.7,3.1,95,0.00,,---,0.00,VWS V14.01,2013-08-28 10:33:00,
2013-08-28 06:38:00,68.5,67.1,31.01,WSW,240,0.0,2.2,95,0.00,,---,0.00,VWS V14.01,2013-08-28 10:38:00,
2013-08-28 06:43:00,68.4,66.9,31.01,WSW,240,0.0,0.0,95,0.00,,---,0.00,VWS V14.01,2013-08-28 10:43:00,
2013-08-28 06:48:00,68.5,67.1,31.01,NE,38,0.0,0.0,95,0.00,,---,0.00,VWS V14.01,2013-08-28 10:48:00,
2013-08-28 06:53:00,68.5,67.1,31.01,NE,38,0.0,0.0,95,0.00,,---,0.00,VWS V14.01,2013-08-28 10:53:00,
2013-08-28 06:58:00,68.4,66.9,31.01,NE,38,0.0,0.0,95,0.00,,---,0.00,VWS V14.01,2013-08-28 10:58:00,
2013-08-28 07:03:00,68.5,67.1,31.01,NE,42,0.0,2.7,95,0.00,,---,0.00,VWS V14.01,2013-08-28 11:03:00,
2013-08-28 07:08:00,68.5,67.1,31.01,ENE,77,0.0,0.0,95,0.00,,---,0.00,VWS V14.01,2013-08-28 11:08:00,
2013-08-28 07:13:00,68.5,67.1,31.01,ENE,77,2.2,2.2,95,0.00,,---,0.00,VWS V14.01,2013-08-28 11:13:00,
2013-08-28 07:18:00,68.7,67.2,31.01,ENE,77,0.0,0.0,95,0.00,,---,0.00,VWS V14.01,2013-08-28 11:18:00,
2013-08-28 07:23:00,68.7,67.2,31.01,ENE,77,0.0,0.0,95,0.00,,---,0.00,VWS V14.01,2013-08-28 11:23:00,
2013-08-28 07:28:00,68.7,67.2,31.01,ENE,77,0.0,3.6,95,0.00,,---,0.00,VWS V14.01,2013-08-28 11:28:00,
2013-08-28 07:33:00,68.7,67.5,31.01,ENE,78,0.0,0.0,96,0.00,,---,0.00,VWS V14.01,2013-08-28 11:33:00,
2013-08-28 07:38:00,68.7,67.5,31.01,ENE,78,0.0,0.0,96,0.00,,---,0.00,VWS V14.01,2013-08-28 11:38:00,
2013-08-28 07:43:00,68.7,67.5,31.01,ENE,78,0.0,0.0,96,0.00,,---,0.00,VWS V14.01,2013-08-28 11:43:00,
2013-08-28 07:48:00,68.9,67.7,31.01,ENE,78,0.0,2.7,96,0.00,,---,0.00,VWS V14.01,2013-08-28 11:48:00,
2013-08-28 07:53:00,68.9,67.7,31.01,SW,229,0.0,2.7,96,0.00,,---,0.00,VWS V14.01,2013-08-28 11:53:00,
2013-08-28 07:58:00,69.1,68.2,31.01,SSW,192,0.0,0.0,97,0.00,,---,0.00,VWS V14.01,2013-08-28 11:58:00,
2013-08-28 08:03:00,69.3,68.4,31.01,SSW,192,2.7,2.7,97,0.00,,---,0.00,VWS V14.01,2013-08-28 12:03:00,
2013-08-28 08:08:00,69.4,68.6,31.01,ESE,123,2.2,3.6,97,0.00,,---,0.00,VWS V14.01,2013-08-28 12:08:00,
2013-08-28 08:13:00,69.6,68.7,31.01,ESE,123,2.7,2.7,97,0.00,,---,0.00,VWS V14.01,2013-08-28 12:13:00,
2013-08-28 08:18:00,69.8,68.9,31.01,ESE,123,0.0,0.0,97,0.00,,---,0.00,VWS V14.01,2013-08-28 12:18:00,
2013-08-28 08:23:00,70.0,68.8,31.01,ESE,123,0.0,0.0,96,0.00,,---,0.00,VWS V14.01,2013-08-28 12:23:00,
2013-08-28 08:28:00,70.3,69.2,31.01,SE,126,2.2,3.6,96,0.00,,---,0.00,VWS V14.01,2013-08-28 12:28:00,
2013-08-28 08:33:00,70.7,69.2,31.01,SE,126,0.0,0.0,95,0.00,,---,0.00,VWS V14.01,2013-08-28 12:33:00,
2013-08-28 08:38:00,71.1,69.2,31.01,East,85,2.7,3.1,94,0.00,,---,0.00,VWS V14.01,2013-08-28 12:38:00,
2013-08-28 08:43:00,71.4,69.3,31.01,East,85,3.1,3.1,93,0.00,,---,0.00,VWS V14.01,2013-08-28 12:43:00,
2013-08-28 08:48:00,71.8,69.3,31.01,SSE,166,2.7,4.0,92,0.00,,---,0.00,VWS V14.01,2013-08-28 12:48:00,
2013-08-28 08:53:00,72.1,69.4,31.01,ESE,118,2.2,2.2,91,0.00,,---,0.00,VWS V14.01,2013-08-28 12:53:00,
2013-08-28 08:58:00,72.3,69.6,31.01,ESE,118,0.0,2.7,91,0.00,,---,0.00,VWS V14.01,2013-08-28 12:58:00,
2013-08-28 09:03:00,72.7,69.6,31.01,ESE,118,2.2,2.7,90,0.00,,---,0.00,VWS V14.01,2013-08-28 13:03:00,
2013-08-28 09:08:00,73.0,69.9,31.01,ESE,118,0.0,0.0,90,0.00,,---,0.00,VWS V14.01,2013-08-28 13:08:00,
2013-08-28 09:13:00,73.4,69.6,31.01,ESE,117,3.6,4.0,88,0.00,,---,0.00,VWS V14.01,2013-08-28 13:13:00,
2013-08-28 09:18:00,73.6,69.1,31.01,East,80,2.7,3.1,86,0.00,,---,0.00,VWS V14.01,2013-08-28 13:18:00,
2013-08-28 09:23:00,74.1,69.7,31.01,East,93,3.1,4.0,86,0.00,,---,0.00,VWS V14.01,2013-08-28 13:23:00,
2013-08-28 09:28:00,74.5,70.0,31.01,East,93,0.0,0.0,86,0.00,,---,0.00,VWS V14.01,2013-08-28 13:28:00,
2013-08-28 09:33:00,74.8,70.4,31.01,East,93,3.1,3.1,86,0.00,,---,0.00,VWS V14.01,2013-08-28 13:33:00,
2013-08-28 09:38:00,75.4,70.6,31.01,East,93,0.0,2.2,85,0.00,,---,0.00,VWS V14.01,2013-08-28 13:38:00,
2013-08-28 09:43:00,75.7,70.6,31.01,SSW,210,2.2,2.2,84,0.00,,---,0.00,VWS V14.01,2013-08-28 13:43:00,
2013-08-28 09:48:00,76.1,70.2,31.01,North,0,2.7,4.0,82,0.00,,---,0.00,VWS V14.01,2013-08-28 13:48:00,
2013-08-28 09:53:00,76.5,70.2,31.01,ENE,58,2.7,3.1,81,0.00,,---,0.00,VWS V14.01,2013-08-28 13:53:00,
2013-08-28 09:58:00,76.8,69.4,31.01,SSE,161,2.7,3.1,78,0.00,,---,0.00,VWS V14.01,2013-08-28 13:58:00,
2013-08-28 10:03:00,77.2,69.4,31.01,NNE,28,0.0,2.2,77,0.00,,---,0.00,VWS V14.01,2013-08-28 14:03:00,
2013-08-28 10:08:00,77.7,69.6,31.01,North,353,0.0,2.7,76,0.00,,---,0.00,VWS V14.01,2013-08-28 14:08:00,
2013-08-28 10:13:00,78.1,69.1,31.01,NE,54,2.7,5.8,74,0.00,,---,0.00,VWS V14.01,2013-08-28 14:13:00,
2013-08-28 10:18:00,78.4,68.7,31.01,ESE,114,2.7,2.7,72,0.00,,---,0.00,VWS V14.01,2013-08-28 14:18:00,
2013-08-28 10:23:00,78.6,68.4,31.01,North,353,4.9,4.9,71,0.00,,---,0.00,VWS V14.01,2013-08-28 14:23:00,
2013-08-28 10:28:00,78.8,68.2,31.01,ENE,69,6.3,6.3,70,0.00,,---,0.00,VWS V14.01,2013-08-28 14:28:00,
2013-08-28 10:33:00,79.3,69.1,31.01,SE,133,3.1,3.1,71,0.00,,---,0.00,VWS V14.01,2013-08-28 14:33:00,
2013-08-28 10:38:00,79.7,69.1,31.01,SE,139,6.3,6.3,70,0.00,,---,0.00,VWS V14.01,2013-08-28 14:38:00,
2013-08-28 10:43:00,80.2,69.6,31.01,South,173,3.1,3.1,70,0.00,,---,0.00,VWS V14.01,2013-08-28 14:43:00,
2013-08-28 10:48:00,80.6,69.1,31.01,NE,56,3.1,3.1,68,0.00,,---,0.00,VWS V14.01,2013-08-28 14:48:00,
2013-08-28 10:53:00,81.0,68.5,31.01,SE,135,2.7,4.9,66,0.00,,---,0.00,VWS V14.01,2013-08-28 14:53:00,
2013-08-28 10:58:00,81.1,68.3,31.01,SW,216,4.0,4.0,65,0.00,,---,0.00,VWS V14.01,2013-08-28 14:58:00,
2013-08-28 11:03:00,81.3,68.4,31.01,NW,321,3.6,4.9,65,0.00,,---,0.00,VWS V14.01,2013-08-28 15:03:00,
2013-08-28 11:08:00,82.0,69.6,31.01,WNW,294,2.7,2.7,66,0.00,,---,0.00,VWS V14.01,2013-08-28 15:08:00,
2013-08-28 11:13:00,82.2,68.8,31.01,NE,56,2.7,2.7,64,0.00,,---,0.00,VWS V14.01,2013-08-28 15:13:00,
2013-08-28 11:18:00,82.6,69.2,31.01,ESE,112,4.0,4.0,64,0.00,,---,0.00,VWS V14.01,2013-08-28 15:18:00,
2013-08-28 11:23:00,82.8,68.9,31.01,East,98,2.7,3.1,63,0.00,,---,0.00,VWS V14.01,2013-08-28 15:23:00,
2013-08-28 11:28:00,83.3,68.9,31.01,ESE,117,2.7,4.0,62,0.00,,---,0.00,VWS V14.01,2013-08-28 15:28:00,
2013-08-28 11:33:00,83.1,68.8,31.01,ENE,61,2.7,2.7,62,0.00,,---,0.00,VWS V14.01,2013-08-28 15:33:00,
2013-08-28 11:38:00,83.5,68.6,31.01,WSW,239,2.2,2.7,61,0.00,,---,0.00,VWS V14.01,2013-08-28 15:38:00,
2013-08-28 11:43:00,84.6,69.6,31.01,NW,304,2.2,2.7,61,0.00,,---,0.00,VWS V14.01,2013-08-28 15:43:00,
2013-08-28 11:48:00,84.0,69.1,31.01,SE,129,5.4,5.4,61,0.00,,---,0.00,VWS V14.01,2013-08-28 15:48:00,
2013-08-28 11:53:00,84.6,69.6,31.01,ENE,60,3.1,3.1,61,0.00,,---,0.00,VWS V14.01,2013-08-28 15:53:00,
2013-08-28 11:58:00,85.8,69.8,31.01,SE,139,0.0,3.1,59,0.00,,---,0.00,VWS V14.01,2013-08-28 15:58:00,
2013-08-28 12:03:00,85.8,69.8,31.01,SSW,198,2.7,3.1,59,0.00,,---,0.00,VWS V14.01,2013-08-28 16:03:00,
2013-08-28 12:08:00,84.9,69.0,31.01,NE,41,2.7,2.7,59,0.00,,---,0.00,VWS V14.01,2013-08-28 16:08:00,
2013-08-28 12:13:00,84.4,69.0,31.01,WSW,237,2.2,4.0,60,0.00,,---,0.00,VWS V14.01,2013-08-28 16:13:00,
2013-08-28 12:18:00,84.0,69.6,31.01,SE,146,2.7,3.1,62,0.00,,---,0.00,VWS V14.01,2013-08-28 16:18:00,
2013-08-28 12:23:00,83.8,69.0,31.01,ESE,118,0.0,5.4,61,0.00,,---,0.00,VWS V14.01,2013-08-28 16:23:00,
2013-08-28 12:28:00,83.8,70.4,31.01,ESE,112,2.7,2.7,64,0.00,,---,0.00,VWS V14.01,2013-08-28 16:28:00,
2013-08-28 12:33:00,84.0,70.1,31.01,SW,220,3.1,3.6,63,0.00,,---,0.00,VWS V14.01,2013-08-28 16:33:00,
2013-08-28 12:38:00,84.4,70.4,31.01,SE,134,2.7,2.7,63,0.00,,---,0.00,VWS V14.01,2013-08-28 16:38:00,
2013-08-28 12:43:00,84.7,70.3,31.01,ESE,117,3.6,3.6,62,0.00,,---,0.00,VWS V14.01,2013-08-28 16:43:00,
2013-08-28 12:48:00,84.9,70.0,31.01,SSW,202,0.0,3.1,61,0.00,,---,0.00,VWS V14.01,2013-08-28 16:48:00,
2013-08-28 12:53:00,84.9,69.5,31.01,West,266,3.1,3.1,60,0.00,,---,0.00,VWS V14.01,2013-08-28 16:53:00,
2013-08-28 12:58:00,84.9,69.0,31.01,ENE,69,2.7,5.8,59,0.00,,---,0.00,VWS V14.01,2013-08-28 16:58:00,
2013-08-28 13:03:00,85.6,70.2,31.01,SSW,192,5.4,5.4,60,0.00,,---,0.00,VWS V14.01,2013-08-28 17:03:00,
2013-08-28 13:08:00,85.3,68.8,31.01,South,175,2.2,3.6,58,0.00,,---,0.00,VWS V14.01,2013-08-28 17:08:00,
2013-08-28 13:13:00,85.1,69.2,31.01,NE,39,0.0,3.6,59,0.00,,---,0.00,VWS V14.01,2013-08-28 17:13:00,
2013-08-28 13:18:00,85.1,69.7,31.01,NE,41,2.7,2.7,60,0.00,,---,0.00,VWS V14.01,2013-08-28 17:18:00,
2013-08-28 13:23:00,84.9,69.0,31.01,NE,51,0.0,3.1,59,0.00,,---,0.00,VWS V14.01,2013-08-28 17:23:00,
2013-08-28 13:28:00,85.3,69.3,31.01,East,93,3.1,3.1,59,0.00,,---,0.00,VWS V14.01,2013-08-28 17:28:00,
2013-08-28 13:33:00,85.5,70.0,31.01,NE,49,0.0,0.0,60,0.00,,---,0.00,VWS V14.01,2013-08-28 17:33:00,
2013-08-28 13:38:00,85.5,69.5,31.01,NE,47,0.0,2.2,59,0.00,,---,0.00,VWS V14.01,2013-08-28 17:38:00,
2013-08-28 13:43:00,85.5,69.5,31.01,East,92,2.7,3.6,59,0.00,,---,0.00,VWS V14.01,2013-08-28 17:43:00,
2013-08-28 13:48:00,85.8,69.8,31.01,East,94,2.7,2.7,59,0.00,,---,0.00,VWS V14.01,2013-08-28 17:48:00,
2013-08-28 13:53:00,85.6,69.7,31.01,SSE,148,0.0,2.7,59,0.00,,---,0.00,VWS V14.01,2013-08-28 17:53:00,
2013-08-28 13:58:00,85.8,70.8,31.01,SSE,148,0.0,2.7,61,0.00,,---,0.00,VWS V14.01,2013-08-28 17:58:00,
2013-08-28 14:03:00,85.8,69.8,31.01,East,87,0.0,0.0,59,0.00,,---,0.00,VWS V14.01,2013-08-28 18:03:00,
2013-08-28 14:08:00,85.8,69.8,31.01,East,87,0.0,0.0,59,0.00,,---,0.00,VWS V14.01,2013-08-28 18:08:00,
2013-08-28 14:13:00,85.3,68.8,31.01,East,87,2.2,2.7,58,0.00,,---,0.00,VWS V14.01,2013-08-28 18:13:00,
2013-08-28 14:18:00,84.9,68.5,31.01,SE,131,0.0,4.0,58,0.00,,---,0.00,VWS V14.01,2013-08-28 18:18:00,
2013-08-28 14:23:00,85.5,69.0,31.01,ESE,107,2.2,3.1,58,0.00,,---,0.00,VWS V14.01,2013-08-28 18:23:00,
2013-08-28 14:28:00,86.4,69.3,31.01,East,84,3.1,3.6,57,0.00,,---,0.00,VWS V14.01,2013-08-28 18:28:00,
2013-08-28 14:33:00,86.7,69.2,31.01,NNE,17,0.0,2.2,56,0.00,,---,0.00,VWS V14.01,2013-08-28 18:33:00,
2013-08-28 14:38:00,86.9,69.3,31.01,NNE,17,2.7,3.6,56,0.00,,---,0.00,VWS V14.01,2013-08-28 18:38:00,
2013-08-28 14:43:00,86.4,69.3,31.01,SE,139,3.6,3.6,57,0.00,,---,0.00,VWS V14.01,2013-08-28 18:43:00,
2013-08-28 14:48:00,86.5,70.5,31.01,SE,145,2.2,2.7,59,0.00,,---,0.00,VWS V14.01,2013-08-28 18:48:00,
2013-08-28 14:53:00,86.9,69.8,31.01,ESE,109,3.1,3.1,57,0.00,,---,0.00,VWS V14.01,2013-08-28 18:53:00,
2013-08-28 14:58:00,86.7,69.2,31.01,East,98,2.2,3.1,56,0.00,,---,0.00,VWS V14.01,2013-08-28 18:58:00,
2013-08-28 15:03:00,86.5,67.9,31.01,NNE,33,2.2,2.2,54,0.00,,---,0.00,VWS V14.01,2013-08-28 19:03:00,
2013-08-28 15:08:00,86.5,69.0,31.01,SW,235,3.1,3.1,56,0.00,,---,0.00,VWS V14.01,2013-08-28 19:08:00,
2013-08-28 15:13:00,86.7,69.7,31.01,ESE,106,0.0,2.2,57,0.00,,---,0.00,VWS V14.01,2013-08-28 19:13:00,
2013-08-28 15:18:00,86.9,69.8,31.01,West,272,3.1,4.0,57,0.00,,---,0.00,VWS V14.01,2013-08-28 19:18:00,
2013-08-28 15:23:00,86.7,69.2,31.01,ESE,122,2.2,4.9,56,0.00,,---,0.00,VWS V14.01,2013-08-28 19:23:00,
2013-08-28 15:28:00,86.9,69.3,31.01,SE,126,0.0,0.0,56,0.00,,---,0.00,VWS V14.01,2013-08-28 19:28:00,
2013-08-28 15:33:00,86.4,68.8,31.01,East,97,3.1,4.9,56,0.00,,---,0.00,VWS V14.01,2013-08-28 19:33:00,
2013-08-28 15:38:00,86.5,69.5,31.01,NE,34,2.7,2.7,57,0.00,,---,0.00,VWS V14.01,2013-08-28 19:38:00,
2013-08-28 15:43:00,86.7,69.7,31.01,East,100,2.2,2.2,57,0.00,,---,0.00,VWS V14.01,2013-08-28 19:43:00,
2013-08-28 15:48:00,86.4,68.8,31.01,ESE,117,2.2,2.2,56,0.00,,---,0.00,VWS V14.01,2013-08-28 19:48:00,
2013-08-28 15:53:00,86.4,69.3,31.01,ESE,120,3.1,3.6,57,0.00,,---,0.00,VWS V14.01,2013-08-28 19:53:00,
2013-08-28 15:58:00,86.2,69.7,31.01,ESE,123,4.0,4.0,58,0.00,,---,0.00,VWS V14.01,2013-08-28 19:58:00,
2013-08-28 16:03:00,86.2,69.2,31.01,SE,124,0.0,0.0,57,0.00,,---,0.00,VWS V14.01,2013-08-28 20:03:00,
2013-08-28 16:08:00,86.4,69.8,31.01,SE,124,0.0,0.0,58,0.00,,---,0.00,VWS V14.01,2013-08-28 20:08:00,
2013-08-28 16:13:00,86.2,69.7,31.01,SSE,159,3.6,3.6,58,0.00,,---,0.00,VWS V14.01,2013-08-28 20:13:00,
2013-08-28 16:18:00,86.0,69.5,31.01,ESE,119,0.0,3.1,58,0.00,,---,0.00,VWS V14.01,2013-08-28 20:18:00,
2013-08-28 16:23:00,85.8,69.8,31.01,East,101,0.0,0.0,59,0.00,,---,0.00,VWS V14.01,2013-08-28 20:23:00,
2013-08-28 16:28:00,86.0,69.5,31.01,ESE,109,2.2,2.2,58,0.00,,---,0.00,VWS V14.01,2013-08-28 20:28:00,
2013-08-28 16:33:00,85.5,69.0,31.01,SSW,196,3.1,3.1,58,0.00,,---,0.00,VWS V14.01,2013-08-28 20:33:00,
2013-08-28 16:38:00,85.1,69.7,31.01,SE,135,2.2,2.2,60,0.00,,---,0.00,VWS V14.01,2013-08-28 20:38:00,
2013-08-28 16:43:00,85.1,69.2,31.01,SSW,205,0.0,0.0,59,0.00,,---,0.00,VWS V14.01,2013-08-28 20:43:00,
2013-08-28 16:48:00,85.1,69.2,31.01,NE,56,0.0,0.0,59,0.00,,---,0.00,VWS V14.01,2013-08-28 20:48:00,
2013-08-28 16:53:00,84.7,68.8,31.01,ESE,123,2.7,3.6,59,0.00,,---,0.00,VWS V14.01,2013-08-28 20:53:00,
2013-08-28 16:58:00,84.6,69.6,31.01,WSW,239,0.0,0.0,61,0.00,,---,0.00,VWS V14.01,2013-08-28 20:58:00,
2013-08-28 17:03:00,84.4,69.5,31.01,WSW,239,2.2,2.2,61,0.00,,---,0.00,VWS V14.01,2013-08-28 21:03:00,
2013-08-28 17:08:00,83.8,69.9,31.01,WSW,239,0.0,0.0,63,0.00,,---,0.00,VWS V14.01,2013-08-28 21:08:00,
2013-08-28 17:13:00,83.1,69.2,31.01,WSW,239,0.0,0.0,63,0.00,,---,0.00,VWS V14.01,2013-08-28 21:13:00,
2013-08-28 17:18:00,82.4,69.0,31.01,SE,135,0.0,0.0,64,0.00,,---,0.00,VWS V14.01,2013-08-28 21:18:00,
2013-08-28 17:23:00,82.0,70.0,31.01,SE,135,0.0,0.0,67,0.00,,---,0.00,VWS V14.01,2013-08-28 21:23:00,
2013-08-28 17:28:00,81.9,69.8,31.01,SE,135,0.0,0.0,67,0.00,,---,0.00,VWS V14.01,2013-08-28 21:28:00,
2013-08-28 17:33:00,81.7,70.1,31.01,SE,135,2.2,2.2,68,0.00,,---,0.00,VWS V14.01,2013-08-28 21:33:00,
2013-08-28 17:38:00,81.7,70.1,31.01,SE,135,0.0,0.0,68,0.00,,---,0.00,VWS V14.01,2013-08-28 21:38:00,
2013-08-28 17:43:00,81.5,69.5,31.01,SE,136,2.2,2.2,67,0.00,,---,0.00,VWS V14.01,2013-08-28 21:43:00,
2013-08-28 17:48:00,81.3,70.2,31.01,SE,136,0.0,0.0,69,0.00,,---,0.00,VWS V14.01,2013-08-28 21:48:00,
2013-08-28 17:53:00,80.6,69.9,31.01,SE,137,0.0,0.0,70,0.00,,---,0.00,VWS V14.01,2013-08-28 21:53:00,
2013-08-28 17:58:00,80.4,70.2,31.01,SE,133,0.0,0.0,71,0.00,,---,0.00,VWS V14.01,2013-08-28 21:58:00,
2013-08-28 18:03:00,80.1,70.2,31.01,SE,133,0.0,0.0,72,0.00,,---,0.00,VWS V14.01,2013-08-28 22:03:00,
2013-08-28 18:08:00,79.5,69.7,31.01,SE,133,0.0,0.0,72,0.00,,---,0.00,VWS V14.01,2013-08-28 22:08:00,
2013-08-28 18:13:00,79.2,70.2,31.01,SE,133,0.0,0.0,74,0.00,,---,0.00,VWS V14.01,2013-08-28 22:13:00,
2013-08-28 18:18:00,78.8,70.2,31.01,SE,133,0.0,0.0,75,0.00,,---,0.00,VWS V14.01,2013-08-28 22:18:00,
2013-08-28 18:23:00,78.8,70.2,31.01,SE,133,0.0,0.0,75,0.00,,---,0.00,VWS V14.01,2013-08-28 22:23:00,
2013-08-28 18:28:00,78.4,70.2,31.01,SE,133,0.0,0.0,76,0.00,,---,0.00,VWS V14.01,2013-08-28 22:28:00,
2013-08-28 18:33:00,78.3,70.5,31.01,SE,133,0.0,0.0,77,0.00,,---,0.00,VWS V14.01,2013-08-28 22:33:00,
2013-08-28 18:38:00,78.1,70.7,31.01,SE,133,0.0,0.0,78,0.00,,---,0.00,VWS V14.01,2013-08-28 22:38:00,
2013-08-28 18:43:00,77.9,70.5,31.01,SE,133,0.0,0.0,78,0.00,,---,0.00,VWS V14.01,2013-08-28 22:43:00,
2013-08-28 18:48:00,77.7,70.3,31.01,SE,133,0.0,0.0,78,0.00,,---,0.00,VWS V14.01,2013-08-28 22:48:00,
2013-08-28 18:53:00,77.4,70.3,31.01,SE,133,0.0,0.0,79,0.00,,---,0.00,VWS V14.01,2013-08-28 22:53:00,
2013-08-28 18:58:00,77.2,70.2,31.01,SE,133,0.0,0.0,79,0.00,,---,0.00,VWS V14.01,2013-08-28 22:58:00,
2013-08-28 19:03:00,77.0,70.4,31.01,SE,133,0.0,0.0,80,0.00,,---,0.00,VWS V14.01,2013-08-28 23:03:00,
2013-08-28 19:08:00,76.6,70.4,31.01,SE,133,0.0,0.0,81,0.00,,---,0.00,VWS V14.01,2013-08-28 23:08:00,
2013-08-28 19:13:00,76.5,70.2,31.01,SE,133,0.0,0.0,81,0.00,,---,0.00,VWS V14.01,2013-08-28 23:13:00,
2013-08-28 19:18:00,76.5,70.9,31.01,SE,133,0.0,0.0,83,0.00,,---,0.00,VWS V14.01,2013-08-28 23:18:00,
2013-08-28 19:23:00,76.1,71.3,31.01,SE,133,0.0,0.0,85,0.00,,---,0.00,VWS V14.01,2013-08-28 23:23:00,
2013-08-28 19:28:00,75.7,71.6,31.01,SE,133,0.0,0.0,87,0.00,,---,0.00,VWS V14.01,2013-08-28 23:28:00,
2013-08-28 19:33:00,75.6,71.8,31.01,SE,133,0.0,0.0,88,0.00,,---,0.00,VWS V14.01,2013-08-28 23:33:00,
2013-08-28 19:38:00,75.2,71.7,31.01,SE,133,0.0,0.0,89,0.00,,---,0.00,VWS V14.01,2013-08-28 23:38:00,
2013-08-28 19:43:00,75.0,71.6,31.01,SE,133,0.0,0.0,89,0.00,,---,0.00,VWS V14.01,2013-08-28 23:43:00,
2013-08-28 19:48:00,74.7,71.5,31.01,SE,133,0.0,0.0,90,0.00,,---,0.00,VWS V14.01,2013-08-28 23:48:00,
2013-08-28 19:53:00,74.5,71.7,31.01,SE,133,0.0,0.0,91,0.00,,---,0.00,VWS V14.01,2013-08-28 23:53:00,
2013-08-28 19:58:00,74.1,71.3,31.01,SE,133,0.0,0.0,91,0.00,,---,0.00,VWS V14.01,2013-08-28 23:58:00,
2013-08-28 20:03:00,73.8,71.3,31.01,SE,133,0.0,0.0,92,0.00,,---,0.00,VWS V14.01,2013-08-29 00:03:00,
2013-08-28 20:08:00,73.6,71.4,31.01,SE,133,0.0,0.0,93,0.00,,---,0.00,VWS V14.01,2013-08-29 00:08:00,
2013-08-28 20:13:00,73.2,71.1,31.01,SE,133,0.0,0.0,93,0.00,,---,0.00,VWS V14.01,2013-08-29 00:13:00,
2013-08-28 20:18:00,73.0,71.2,31.01,SE,133,0.0,0.0,94,0.00,,---,0.00,VWS V14.01,2013-08-29 00:18:00,
2013-08-28 20:23:00,72.9,71.0,31.01,SE,133,0.0,0.0,94,0.00,,---,0.00,VWS V14.01,2013-08-29 00:23:00,
2013-08-28 20:28:00,72.5,71.0,31.01,SE,133,0.0,0.0,95,0.00,,---,0.00,VWS V14.01,2013-08-29 00:28:00,
2013-08-28 20:33:00,72.3,71.1,31.01,SE,133,0.0,0.0,96,0.00,,---,0.00,VWS V14.01,2013-08-29 00:33:00,
2013-08-28 20:38:00,72.0,70.8,31.01,SE,133,0.0,0.0,96,0.00,,---,0.00,VWS V14.01,2013-08-29 00:38:00,
2013-08-28 20:43:00,71.8,70.9,31.01,SE,133,0.0,0.0,97,0.00,,---,0.00,VWS V14.01,2013-08-29 00:43:00,
2013-08-28 20:48:00,71.6,70.7,31.01,SE,133,0.0,0.0,97,0.00,,---,0.00,VWS V14.01,2013-08-29 00:48:00,
2013-08-28 20:53:00,71.4,70.8,31.01,SE,133,0.0,0.0,98,0.00,,---,0.00,VWS V14.01,2013-08-29 00:53:00,
2013-08-28 20:58:00,71.2,70.7,31.01,SE,133,0.0,0.0,98,0.00,,---,0.00,VWS V14.01,2013-08-29 00:58:00,
2013-08-28 21:03:00,71.1,70.5,31.01,SE,133,0.0,0.0,98,0.00,,---,0.00,VWS V14.01,2013-08-29 01:03:00,
2013-08-28 21:08:00,70.9,70.3,31.01,SE,133,0.0,0.0,98,0.00,,---,0.00,VWS V14.01,2013-08-29 01:08:00,
2013-08-28 21:13:00,70.7,70.1,31.01,SE,133,0.0,0.0,98,0.00,,---,0.00,VWS V14.01,2013-08-29 01:13:00,
2013-08-28 21:18:00,70.5,69.9,31.01,SE,133,2.7,2.7,98,0.00,,---,0.00,VWS V14.01,2013-08-29 01:18:00,
2013-08-28 21:23:00,70.7,70.1,31.01,SSE,158,0.0,0.0,98,0.00,,---,0.00,VWS V14.01,2013-08-29 01:23:00,
2013-08-28 21:28:00,70.5,69.9,31.01,SE,138,2.7,2.7,98,0.00,,---,0.00,VWS V14.01,2013-08-29 01:28:00,
2013-08-28 21:33:00,70.7,70.1,31.01,SE,138,0.0,0.0,98,0.00,,---,0.00,VWS V14.01,2013-08-29 01:33:00,
2013-08-28 21:38:00,70.5,69.9,31.01,SE,138,0.0,0.0,98,0.00,,---,0.00,VWS V14.01,2013-08-29 01:38:00,
2013-08-28 21:43:00,70.5,69.6,31.01,SE,138,0.0,0.0,97,0.00,,---,0.00,VWS V14.01,2013-08-29 01:43:00,
2013-08-28 21:48:00,70.5,69.6,31.01,SE,138,0.0,2.2,97,0.00,,---,0.00,VWS V14.01,2013-08-29 01:48:00,
2013-08-28 21:53:00,70.5,69.3,31.01,SE,138,2.7,3.1,96,0.00,,---,0.00,VWS V14.01,2013-08-29 01:53:00,
2013-08-28 21:58:00,70.5,69.0,31.01,SW,229,2.2,2.2,95,0.00,,---,0.00,VWS V14.01,2013-08-29 01:58:00,
2013-08-28 22:03:00,70.5,68.7,31.01,SW,229,0.0,0.0,94,0.00,,---,0.00,VWS V14.01,2013-08-29 02:03:00,
2013-08-28 22:08:00,70.5,68.1,31.01,SW,229,0.0,0.0,92,0.00,,---,0.00,VWS V14.01,2013-08-29 02:08:00,
2013-08-28 22:13:00,70.5,68.4,31.01,SW,229,0.0,0.0,93,0.00,,---,0.00,VWS V14.01,2013-08-29 02:13:00,
2013-08-28 22:18:00,70.5,68.1,31.01,South,184,2.7,2.7,92,0.00,,---,0.00,VWS V14.01,2013-08-29 02:18:00,
2013-08-28 22:23:00,70.3,67.9,31.01,ESE,121,2.7,2.7,92,0.00,,---,0.00,VWS V14.01,2013-08-29 02:23:00,
2013-08-28 22:28:00,70.5,68.1,31.01,SE,126,0.0,0.0,92,0.00,,---,0.00,VWS V14.01,2013-08-29 02:28:00,
2013-08-28 22:33:00,70.3,68.2,31.01,SE,129,0.0,0.0,93,0.00,,---,0.00,VWS V14.01,2013-08-29 02:33:00,
2013-08-28 22:38:00,70.3,68.2,31.01,SE,129,0.0,0.0,93,0.00,,---,0.00,VWS V14.01,2013-08-29 02:38:00,
2013-08-28 22:43:00,70.5,68.4,31.01,West,278,0.0,0.0,93,0.00,,---,0.00,VWS V14.01,2013-08-29 02:43:00,
2013-08-28 22:48:00,70.3,68.2,31.01,SSW,194,0.0,0.0,93,0.00,,---,0.00,VWS V14.01,2013-08-29 02:48:00,
2013-08-28 22:53:00,70.3,68.5,31.01,WNW,288,2.7,3.1,94,0.00,,---,0.00,VWS V14.01,2013-08-29 02:53:00,
2013-08-28 22:58:00,70.5,68.4,31.01,South,175,0.0,2.7,93,0.00,,---,0.00,VWS V14.01,2013-08-29 02:58:00,
2013-08-28 23:03:00,70.5,68.4,31.01,SE,145,3.1,3.1,93,0.00,,---,0.00,VWS V14.01,2013-08-29 03:03:00,
2013-08-28 23:08:00,70.7,68.6,31.01,SE,131,2.7,2.7,93,0.00,,---,0.00,VWS V14.01,2013-08-29 03:08:00,
2013-08-28 23:13:00,70.5,68.4,31.01,SE,131,2.7,2.7,93,0.00,,---,0.00,VWS V14.01,2013-08-29 03:13:00,
2013-08-28 23:18:00,70.5,68.7,31.01,SSW,195,0.0,0.0,94,0.00,,---,0.00,VWS V14.01,2013-08-29 03:18:00,
2013-08-28 23:23:00,70.3,68.8,31.01,WSW,249,0.0,4.0,95,0.00,,---,0.00,VWS V14.01,2013-08-29 03:23:00,
2013-08-28 23:28:00,70.3,68.5,31.01,SSE,149,2.2,2.2,94,0.00,,---,0.00,VWS V14.01,2013-08-29 03:28:00,
2013-08-28 23:33:00,70.3,68.8,31.01,ESE,118,0.0,0.0,95,0.00,,---,0.00,VWS V14.01,2013-08-29 03:33:00,
2013-08-28 23:38:00,70.3,68.8,31.01,South,190,0.0,0.0,95,0.00,,---,0.00,VWS V14.01,2013-08-29 03:38:00,
2013-08-28 23:43:00,70.2,68.7,31.01,South,190,2.7,2.7,95,0.00,,---,0.00,VWS V14.01,2013-08-29 03:43:00,
2013-08-28 23:48:00,70.2,69.0,31.01,South,190,0.0,0.0,96,0.00,,---,0.00,VWS V14.01,2013-08-29 03:48:00,
2013-08-28 23:53:00,70.0,68.8,31.01,SE,145,2.7,2.7,96,0.00,,---,0.00,VWS V14.01,2013-08-29 03:53:00,
2013-08-28 23:58:00,70.0,68.8,31.01,SE,145,0.0,2.2,96,0.00,,---,0.00,VWS V14.01,2013-08-29 03:58:00,